DateTimeUTC,F1_A11,F1_S11,BsB_S11,BsG_S11,BsR_S11,BbsB_S11,BbsG_S11,BbsR_S11,BaB_A11,BaG_A11,BaR_A11,Tu_S11,T_S11,Uu_S11,U_S11,P_S11,T1_A11
2021-07-05T03:00:00Z,00000200,20000000,,,,,,,-000.02,-000.20,-000.09,19.2,25.9,08.1,05.4,0667.5,31.2
2021-07-05T03:01:00Z,00000200,20000000,,,,,,,-000.03,0000.24,0000.00,19.2,25.9,08.1,05.4,0667.4,31.2
2021-07-05T03:02:00Z,00000200,20000000,,,,,,,-000.11,0000.29,-000.08,19.2,25.9,08.1,05.4,0667.4,31.2
2021-07-05T03:03:00Z,00000200,60000000,,,,,,,0000.59,0000.30,-000.19,19.2,25.9,08.1,05.4,0667.4,31.1
2021-07-05T03:04:00Z,00000200,40000000,-000.26,0000.60,0000.03,-000.26,0000.31,0000.20,0000.02,-000.39,0000.38,19.2,25.7,08.4,05.7,0668.3,31.1
2021-07-05T03:05:00Z,00000200,00000000,0000.58,0000.32,-000.10,0000.38,0000.13,0000.10,0000.17,0000.05,-000.01,19.2,25.6,08.5,05.7,0668.3,31.1
2021-07-05T03:06:00Z,00000200,00000000,0000.30,0000.49,0000.13,0000.09,0000.27,-000.11,-000.33,0000.24,0000.27,19.2,25.6,08.7,05.9,0668.3,31.1
2021-07-05T03:07:00Z,00000200,00000000,0000.13,0000.38,0000.17,0000.05,0000.07,-000.16,0000.24,0000.21,0000.12,19.2,25.6,08.5,05.8,0668.3,31.2
2021-07-05T03:08:00Z,00000200,00000000,0000.59,-000.09,0000.17,-000.07,-000.08,0000.09,-000.07,-000.21,-000.14,19.3,25.6,08.4,05.7,0668.3,31.2
2021-07-05T03:09:00Z,00000200,00000000,0000.37,0000.33,0000.20,0000.32,-000.12,-000.12,0000.27,0000.42,0000.24,19.4,25.6,08.3,05.7,0668.3,31.2
2021-07-05T03:10:00Z,00000200,00000000,-000.31,0000.69,0000.33,-000.23,0000.13,-000.10,0000.03,-000.10,-000.24,19.5,25.7,08.2,05.6,0668.3,31.2
2021-07-05T03:11:00Z,00000200,00000000,0000.53,0000.55,0000.24,0000.10,0000.27,0000.20,-000.24,-000.10,0000.08,19.6,25.7,08.3,05.7,0668.3,31.2
2021-07-05T03:12:00Z,00000200,00000000,0000.21,0000.25,0000.06,-000.16,0000.24,0000.07,0000.29,0000.09,0000.00,19.6,25.8,08.3,05.7,0668.3,31.2
2021-07-05T03:13:00Z,00000200,00000000,0000.49,0000.40,-000.10,0000.34,0000.21,0000.19,-000.18,-000.29,-000.13,19.6,25.8,08.1,05.6,0668.3,31.2
2021-07-05T03:14:00Z,00000200,00000000,0000.37,0000.24,-000.06,0000.50,0000.11,-000.15,-000.06,0000.11,-000.05,19.6,25.8,08.1,05.6,0668.3,31.2
2021-07-05T03:15:00Z,00000200,00000000,0000.37,0000.40,0000.09,0000.64,0000.13,0000.04,-000.02,-000.33,-000.17,19.6,25.8,08.1,05.6,0668.3,31.2
2021-07-05T03:16:00Z,00000200,00000000,0000.38,-000.02,0000.12,-000.26,0000.06,0000.16,0000.16,0000.51,0000.13,19.5,25.7,08.1,05.5,0668.3,31.2
2021-07-05T03:17:00Z,00000200,00000000,0000.60,0000.46,-000.01,0000.28,0000.41,0000.06,-000.27,-000.34,0000.22,19.5,25.7,08.1,05.5,0668.3,31.2
2021-07-05T03:18:00Z,00000200,00000000,0000.00,0000.62,0000.16,0000.24,0000.23,0000.20,-000.08,0000.25,-000.38,19.5,25.7,07.9,05.4,0668.3,31.2
2021-07-05T03:19:00Z,00000200,00000000,0000.30,0000.53,0000.16,0000.31,0000.23,-000.10,0000.34,-000.29,0000.07,19.4,25.7,08.0,05.5,0668.2,31.2
2021-07-05T03:20:00Z,00000200,00000000,0000.44,-000.01,0000.11,-000.02,0000.32,0000.13,0000.07,0000.23,0000.47,19.4,25.6,08.0,05.4,0668.2,31.2
2021-07-05T03:21:00Z,00000200,00000000,0000.38,0000.32,-000.21,0000.27,0000.13,0000.07,-000.21,-000.09,-000.27,19.3,25.6,07.8,05.3,0668.2,31.2
2021-07-05T03:22:00Z,00000200,00000000,-000.16,0000.08,0000.21,-000.18,0000.07,0000.16,0000.06,-000.01,-000.18,19.4,25.6,07.9,05.4,0668.2,31.2
2021-07-05T03:23:00Z,00000200,00000000,-000.04,-000.01,0000.15,-000.34,0000.21,-000.10,-000.27,-000.08,0000.11,19.4,25.7,07.7,05.3,0668.2,31.2
2021-07-05T03:24:00Z,00000200,00000000,-000.21,0000.27,-000.03,0000.62,0000.02,-000.08,0000.27,0000.38,-000.08,19.4,25.7,07.8,05.3,0668.2,31.2
2021-07-05T03:25:00Z,00000200,00000000,0000.06,0000.47,0000.03,0000.13,0000.40,-000.04,-000.06,-000.12,0000.05,19.4,25.7,07.6,05.2,0668.2,31.2
2021-07-05T03:26:00Z,00000200,00000000,0000.69,0000.27,0000.06,0000.91,0000.24,-000.23,-000.19,-000.12,0000.40,19.5,25.7,07.6,05.2,0668.2,31.2
2021-07-05T03:27:00Z,00000200,00000000,-000.20,-000.02,-000.05,-000.11,0000.30,-000.07,0000.05,-000.12,-000.47,19.4,25.7,07.4,05.1,0668.2,31.2
2021-07-05T03:28:00Z,00000200,00000000,0000.24,0000.24,0000.19,-000.12,0000.10,-000.12,-000.11,-000.17,-000.09,19.4,25.6,07.4,05.1,0668.2,31.2
2021-07-05T03:29:00Z,00000200,00000000,0000.76,0000.16,0000.17,-000.04,-000.11,-000.04,-000.08,0000.24,0000.19,19.4,25.6,07.5,05.1,0668.2,31.2
2021-07-05T03:30:00Z,00000200,00000000,-000.41,0000.47,0000.31,0000.26,0000.20,0000.07,0000.49,0000.26,-000.01,19.3,25.6,07.6,05.2,0668.2,31.2
2021-07-05T03:31:00Z,00000200,00000000,-000.33,0000.09,-000.04,-000.05,0000.34,-000.22,0000.16,0000.31,0000.10,19.3,25.6,07.7,05.2,0668.2,31.2
2021-07-05T03:32:00Z,00000200,00000000,0000.74,0000.30,-000.03,-000.15,-000.06,-000.23,-000.06,0000.08,0000.27,19.3,25.6,07.8,05.3,0668.1,31.1
2021-07-05T03:33:00Z,00000200,00000000,0000.13,0000.28,0000.23,0000.55,0000.27,-000.04,-000.09,-000.42,-000.12,19.2,25.5,07.7,05.2,0668.1,31.2
2021-07-05T03:34:00Z,00000200,00000000,0000.11,0000.31,0000.36,0000.17,-000.01,-000.07,-000.12,0000.13,-000.08,19.2,25.5,07.6,05.2,0668.1,31.1
2021-07-05T03:35:00Z,00000200,00000000,0000.29,0000.15,-000.12,0000.16,-000.12,-000.15,0000.13,0000.11,-000.07,19.2,25.5,07.7,05.2,0668.1,31.1
2021-07-05T03:36:00Z,00000200,00000000,0000.29,0000.05,0000.04,0000.42,0000.36,0000.19,0000.39,0000.19,0000.59,19.1,25.5,07.6,05.2,0668.1,31.1
2021-07-05T03:37:00Z,00000200,00000000,0000.12,-000.04,-000.09,0000.56,-000.03,-000.33,-000.10,-000.20,-000.55,19.2,25.5,07.6,05.2,0668.1,31.1
2021-07-05T03:38:00Z,00000200,00000000,0000.14,0000.31,0000.00,-000.11,0000.16,0000.04,0000.07,0000.22,0000.25,19.2,25.5,07.6,05.2,0668.1,31.2
2021-07-05T03:39:00Z,00000200,00000000,0000.01,0000.34,0000.15,0000.20,0000.18,0000.13,0000.04,0000.01,0000.11,19.3,25.6,07.5,05.1,0668.1,31.2
2021-07-05T03:40:00Z,00000200,00000000,0000.71,0000.31,-000.27,0000.05,0000.09,-000.10,0000.04,-000.19,-000.07,19.4,25.6,07.4,05.1,0668.1,31.2
2021-07-05T03:41:00Z,00000200,00000000,0000.15,0000.24,-000.03,0000.29,0000.25,-000.08,-000.05,0000.02,0000.20,19.5,25.7,07.3,05.0,0668.1,31.2
2021-07-05T03:42:00Z,00000200,00000000,0000.95,0000.12,0000.06,0000.02,0000.18,0000.01,-000.29,-000.10,-000.31,19.5,25.7,07.2,04.9,0668.1,31.2
2021-07-05T03:43:00Z,00000200,00000000,0000.69,0000.30,0000.25,-000.01,0000.17,0000.04,0000.04,-000.24,0000.24,19.5,25.7,07.2,04.9,0668.1,31.2
2021-07-05T03:44:00Z,00000200,00000000,0000.38,0000.60,0000.23,-000.38,0000.10,0000.21,-000.02,0000.54,-000.11,19.5,25.7,07.2,04.9,0668.0,31.2
2021-07-05T03:45:00Z,00000200,00000000,0000.10,0000.13,-000.14,-000.00,0000.16,0000.06,0000.42,0000.03,0000.40,19.5,25.6,07.2,04.9,0668.0,31.2
2021-07-05T03:46:00Z,00000200,00000000,0000.52,0000.49,0000.03,-000.37,-000.03,-000.10,-000.16,-000.27,-000.27,19.4,25.6,07.3,05.0,0668.0,31.2
2021-07-05T03:47:00Z,00000200,00000000,0000.32,0000.51,0000.31,0000.16,0000.32,0000.11,-000.10,0000.01,-000.26,19.4,25.6,07.2,04.9,0668.0,31.2
2021-07-05T03:48:00Z,00000200,00000000,0001.38,0000.57,0000.27,0000.39,0000.23,-000.10,0000.39,0000.36,0000.50,19.3,25.6,07.3,05.0,0668.0,31.2
2021-07-05T03:49:00Z,00000200,00000000,0000.18,0000.09,-000.10,-000.22,0000.38,-000.31,-000.15,0000.12,0000.15,19.3,25.5,07.4,05.0,0668.0,31.1
2021-07-05T03:50:00Z,00000200,00000000,0000.34,0000.51,0000.22,0000.56,0000.07,-000.12,0000.52,0000.07,-000.24,19.3,25.5,07.5,05.1,0668.0,31.1
2021-07-05T03:51:00Z,00000200,00000000,0000.19,0000.58,0000.06,0000.32,0000.34,0000.21,-000.16,0000.10,0000.13,19.2,25.5,07.6,05.2,0668.0,31.1
2021-07-05T03:52:00Z,00000200,00000000,0000.14,0000.60,0000.15,0000.42,0000.06,0000.10,0000.50,0000.35,0000.28,19.3,25.5,07.6,05.2,0667.9,31.1
2021-07-05T03:53:00Z,00000200,00000000,0000.33,0000.20,0000.23,0000.12,0000.19,0000.10,0000.17,0000.26,0000.01,19.3,25.5,07.5,05.1,0668.0,31.2
2021-07-05T03:54:00Z,00000200,00000000,0000.18,0000.25,0000.08,0000.12,0000.31,-000.19,-000.20,-000.24,0000.09,19.4,25.6,07.4,05.1,0667.9,31.2
2021-07-05T03:55:00Z,00000200,00000000,0000.62,0000.10,-000.08,0000.62,0000.06,-000.01,0000.16,-000.13,-000.14,19.5,25.7,07.5,05.2,0667.9,31.2
2021-07-05T03:56:00Z,00000200,00000000,0000.69,0000.41,-000.01,0000.11,0000.02,-000.02,-000.13,-000.09,-000.21,19.5,25.7,07.5,05.1,0667.9,31.2
2021-07-05T03:57:00Z,00000200,40000000,,,,,,,-000.03,0000.47,0000.36,19.6,25.7,07.5,05.2,0668.0,31.2
2021-07-05T03:58:00Z,00000200,60000000,,,,,,,-000.11,-000.01,0000.10,19.3,25.8,07.5,05.0,0666.9,31.2
2021-07-05T03:59:00Z,00000200,20000000,,,,,,,-000.04,-000.34,-000.05,19.2,25.9,07.5,05.0,0666.9,31.2
